TimeEST,TemperatureF,Dew PointF,Humidity,Sea Level PressureIn,VisibilityMPH,Wind Direction,Wind SpeedMPH,Gust SpeedMPH,PrecipitationIn,Events,Conditions,WindDirDegrees,DateUTC
12:15 AM,53.6,51.8,94,30.14,10.0,North,3.5,-,N/A,,Clear,360,2012-12-06 05:15:00
12:35 AM,57.2,55.4,94,30.14,10.0,NNE,4.6,-,N/A,,Clear,30,2012-12-06 05:35:00
12:55 AM,59.0,55.4,88,30.14,10.0,NNE,3.5,-,N/A,,Clear,30,2012-12-06 05:55:00
1:15 AM,59.0,57.2,94,30.13,10.0,NE,4.6,-,N/A,,Clear,40,2012-12-06 06:15:00
1:35 AM,59.0,57.2,94,30.14,10.0,NE,4.6,-,N/A,,Clear,40,2012-12-06 06:35:00
8:35 AM,55.4,55.4,100,30.19,10.0,NE,8.1,-,N/A,,Overcast,50,2012-12-06 13:35:00
8:55 AM,55.4,55.4,100,30.19,10.0,ENE,9.2,-,N/A,,Overcast,70,2012-12-06 13:55:00
9:15 AM,59.0,53.6,82,30.19,10.0,NE,8.1,-,N/A,,Overcast,50,2012-12-06 14:15:00
9:35 AM,60.8,53.6,77,30.19,10.0,NE,9.2,-,N/A,,Overcast,50,2012-12-06 14:35:00
9:55 AM,60.8,51.8,72,30.20,10.0,NNE,6.9,-,N/A,,Overcast,30,2012-12-06 14:55:00
10:15 AM,60.8,53.6,77,30.19,10.0,NNE,8.1,-,N/A,,Overcast,30,2012-12-06 15:15:00
10:35 AM,62.6,53.6,72,30.19,10.0,North,5.8,-,N/A,,Overcast,360,2012-12-06 15:35:00
10:55 AM,60.8,53.6,77,30.19,10.0,NNE,6.9,-,N/A,,Overcast,20,2012-12-06 15:55:00
11:15 AM,62.6,51.8,68,30.19,10.0,NE,8.1,-,N/A,,Mostly Cloudy,50,2012-12-06 16:15:00
11:35 AM,62.6,50.0,63,30.18,10.0,NE,8.1,-,N/A,,Clear,40,2012-12-06 16:35:00
11:55 AM,62.6,48.2,59,30.17,10.0,NE,8.1,-,N/A,,Mostly Cloudy,40,2012-12-06 16:55:00
12:15 PM,62.6,48.2,59,30.16,10.0,NE,4.6,-,N/A,,Overcast,50,2012-12-06 17:15:00
12:35 PM,64.4,50.0,59,30.15,10.0,NE,8.1,-,N/A,,Overcast,50,2012-12-06 17:35:00
12:55 PM,64.4,48.2,56,30.15,10.0,NNE,5.8,-,N/A,,Overcast,30,2012-12-06 17:55:00
1:15 PM,64.4,48.2,56,30.14,10.0,NE,9.2,-,N/A,,Overcast,40,2012-12-06 18:15:00
1:35 PM,64.4,48.2,56,30.13,10.0,NE,4.6,-,N/A,,Mostly Cloudy,40,2012-12-06 18:35:00
1:55 PM,64.4,48.2,56,30.13,10.0,ENE,8.1,-,N/A,,Mostly Cloudy,60,2012-12-06 18:55:00
2:15 PM,64.4,48.2,56,30.13,10.0,NE,4.6,-,N/A,,Overcast,50,2012-12-06 19:15:00
2:35 PM,62.6,48.2,59,30.13,10.0,NE,9.2,-,N/A,,Overcast,40,2012-12-06 19:35:00
2:55 PM,62.6,48.2,59,30.13,10.0,NE,5.8,-,N/A,,Overcast,50,2012-12-06 19:55:00
3:15 PM,62.6,48.2,59,30.13,10.0,NE,6.9,-,N/A,,Overcast,40,2012-12-06 20:15:00
3:35 PM,62.6,50.0,63,30.14,10.0,ENE,5.8,-,N/A,,Overcast,60,2012-12-06 20:35:00
3:55 PM,62.6,48.2,59,30.14,10.0,NNE,6.9,-,N/A,,Overcast,30,2012-12-06 20:55:00
4:15 PM,62.6,48.2,59,30.13,10.0,NE,5.8,-,N/A,,Overcast,40,2012-12-06 21:15:00
4:35 PM,60.8,50.0,68,30.14,10.0,NE,3.5,-,N/A,,Overcast,50,2012-12-06 21:35:00
4:55 PM,60.8,48.2,63,30.13,10.0,NE,3.5,-,N/A,,Overcast,40,2012-12-06 21:55:00
5:15 PM,60.8,48.2,63,30.13,10.0,Calm,Calm,-,N/A,,Mostly Cloudy,0,2012-12-06 22:15:00
5:35 PM,59.0,48.2,67,30.14,10.0,NNE,4.6,-,N/A,,Mostly Cloudy,30,2012-12-06 22:35:00
5:55 PM,59.0,48.2,67,30.14,10.0,NE,4.6,-,N/A,,Scattered Clouds,40,2012-12-06 22:55:00
6:15 PM,59.0,48.2,67,30.15,10.0,NNE,3.5,-,N/A,,Scattered Clouds,20,2012-12-06 23:15:00
6:35 PM,59.0,46.4,63,30.16,10.0,NE,3.5,-,N/A,,Overcast,50,2012-12-06 23:35:00
6:55 PM,57.2,46.4,67,30.16,10.0,NE,9.2,-,N/A,,Overcast,50,2012-12-06 23:55:00
7:15 PM,57.2,46.4,67,30.16,10.0,NE,10.4,-,N/A,,Overcast,50,2012-12-07 00:15:00
7:35 PM,55.4,46.4,72,30.16,10.0,ENE,10.4,16.1,N/A,,Overcast,60,2012-12-07 00:35:00
8:15 PM,55.4,44.6,67,30.17,10.0,NE,6.9,-,N/A,,Overcast,50,2012-12-07 01:15:00
8:35 PM,55.4,44.6,67,30.16,10.0,NNE,8.1,-,N/A,,Overcast,30,2012-12-07 01:35:00
8:55 PM,55.4,44.6,67,30.17,10.0,NE,6.9,-,N/A,,Overcast,40,2012-12-07 01:55:00
9:15 PM,53.6,42.8,67,30.16,10.0,NE,6.9,-,N/A,,Overcast,40,2012-12-07 02:15:00
9:35 PM,53.6,42.8,67,30.16,10.0,NE,5.8,-,N/A,,Overcast,40,2012-12-07 02:35:00
9:55 PM,53.6,42.8,67,30.16,10.0,NE,8.1,-,N/A,,Overcast,40,2012-12-07 02:55:00
10:15 PM,53.6,42.8,67,30.15,10.0,NE,5.8,-,N/A,,Overcast,40,2012-12-07 03:15:00
10:35 PM,53.6,42.8,67,30.15,10.0,NE,6.9,-,N/A,,Overcast,50,2012-12-07 03:35:00
10:55 PM,53.6,42.8,67,30.16,10.0,NE,8.1,-,N/A,,Overcast,40,2012-12-07 03:55:00
11:15 PM,51.8,42.8,71,30.15,10.0,NE,8.1,-,N/A,,Overcast,50,2012-12-07 04:15:00
11:35 PM,51.8,42.8,71,30.14,10.0,NE,6.9,-,N/A,,Overcast,40,2012-12-07 04:35:00
11:55 PM,51.8,42.8,71,30.13,10.0,NE,6.9,-,N/A,,Overcast,50,2012-12-07 04:55:00